Regional Weather Roundup
Issued by NWS

Home | Current Version | Previous Version | Graphics & Text | Print | Product List | Glossary On
Versions: 1 2 3 4 5 6 7 8 9 10 11 12 13 14 15 16 17 18 19 20 21 22 23 24 25 26 27 28 29 30 31 32 33 34 35 36 37 38 39 40 41 42 43 44 45 46 47 48 49 50
000
ASUS43 KFSD 180502
RWRSD

WEATHER ROUNDUP FOR SOUTH DAKOTA
NATIONAL WEATHER SERVICE SIOUX FALLS SD
1100 PM CST FRI NOV 17 2017

NOTE: "FAIR" INDICATES FEW OR NO CLOUDS BELOW 12,000 FEET WITH NO
SIGNIFICANT WEATHER AND/OR OBSTRUCTIONS TO VISIBILITY.


SDZ001>005-009-010-012>017-180600-
NORTHWEST AND NORTH CENTRAL SOUTH DAKOTA

CITY           SKY/WX    TMP DP  RH WIND       PRES   REMARKS
BUFFALO          N/A     32  27  81 NW18      29.77R WCI  20
FAITH            N/A     36  35  96 NW16      29.80R
MOBRIDGE       CLOUDY    31  25  78 CALM      29.76R
$$

SDZ012>016-024>037-041>051-057-063-072>074-180600-
SOUTHWEST AND SOUTH CENTRAL SOUTH DAKOTA

CITY           SKY/WX    TMP DP  RH WIND       PRES   REMARKS
RAPID CTY ARPT CLOUDY    38  29  70 NW17      29.83R
PIERRE         LGT RAIN  38  34  85 W7        29.80R
CUSTER         CLOUDY    31  20  63 N9G16     29.82R WCI  23
ELLSWORTH AFB  CLOUDY    38  31  76 NW20      29.82R
PHILIP         CLOUDY    36  36 100 W5        29.82R
PINE RIDGE     CLOUDY    37  34  89 CALM      29.84R
SPEARFISH      FAIR      36  25  64 NW20      29.87R
WINNER         CLOUDY    40  35  83 N7        29.76F
$$

SDZ004>011-016>023-039-040-180600-
NORTHEAST SOUTH DAKOTA

CITY           SKY/WX    TMP DP  RH WIND       PRES   REMARKS
ABERDEEN       CLOUDY    28  20  71 N5        29.80S WCI  23
WATERTOWN      CLOUDY    30  25  81 N6        29.71F WCI  24
BROOKINGS      CLOUDY    32  28  85 N9        29.72S WCI  24
SISSETON         N/A     27  21  78 N10       29.75F WCI  17
$$

SDZ017-020-022-023-036>040-048>070-180600-
SOUTHEAST SOUTH DAKOTA

CITY           SKY/WX    TMP DP  RH WIND       PRES   REMARKS
SIOUX FALLS    CLOUDY    37  32  82 N8        29.72R
HURON          CLOUDY    34  24  67 N8        29.77R WCI  27
CHAMBERLAIN    CLOUDY    40  32  73 CALM      29.77F
MITCHELL       CLOUDY    37  28  70 N6        29.76S
YANKTON        MOCLDY    40  35  83 N10       29.71R
$$

ABBREVIATIONS USED IN REMARKS
   TC - TEMPERATURE IN CELSIUS
  WCI - WIND CHILL INDEX
   HX - HEAT INDEX
  VSB - VISIBILITY




USA.gov is the U.S. government's official web portal to all federal, state and local government web resources and services.